| time (UTC) | temp C | wind direction | speed KPH | gust KPH | rain 1hr cm | rain 24hr cm | rain mn cm | humidity % | barometer mb |
| 20260906052003 | 25 | 360 | 1.6 | 3.2 | 0.00 | 0.00 | 0.00 | 54 | 1012.2 |
| 20260906051503 | 25 | 22 | 1.6 | 3.2 | 0.00 | 0.00 | 0.00 | 55 | 1012.3 |
| 20260906051003 | 24 | 22 | 1.6 | 3.2 | 0.00 | 0.00 | 0.00 | 56 | 1012.3 |
| 20260906050503 | 23 | 0 | 0.0 | 0.0 | 0.00 | 0.00 | 0.00 | 56 | 1012.3 |
| 20260906050003 | 23 | 22 | 0.0 | 1.6 | 0.00 | 0.00 | 0.00 | 56 | 1012.2 |
| 20260906045503 | 23 | 22 | 1.6 | 3.2 | 0.00 | 0.00 | 0.00 | 56 | 1012.3 |
| 20260906045003 | 23 | 22 | 1.6 | 3.2 | 0.00 | 0.00 | 0.00 | 56 | 1012.2 |
| 20260906044503 | 23 | 22 | 0.0 | 3.2 | 0.00 | 0.00 | 0.00 | 57 | 1012.1 |
| 20260906044003 | 23 | 22 | 1.6 | 3.2 | 0.00 | 0.00 | 0.00 | 57 | 1012.2 |
| 20260906043503 | 22 | 22 | 0.0 | 1.6 | 0.00 | 0.00 | 0.00 | 57 | 1012.1 |
| 20260906043003 | 22 | 0 | 0.0 | 0.0 | 0.00 | 0.00 | 0.00 | 57 | 1012.1 |
| 20260906042503 | 22 | 22 | 0.0 | 1.6 | 0.00 | 0.00 | 0.00 | 57 | 1012.0 |
| 20260906042003 | 22 | 22 | 1.6 | 3.2 | 0.00 | 0.00 | 0.00 | 57 | 1012.0 |
| 20260906041503 | 22 | 22 | 1.6 | 3.2 | 0.00 | 0.00 | 0.00 | 57 | 1011.9 |
| 20260906041003 | 22 | 0 | 0.0 | 0.0 | 0.00 | 0.00 | 0.00 | 57 | 1011.9 |
| 20260906040503 | 22 | 0 | 0.0 | 0.0 | 0.00 | 0.00 | 0.00 | 57 | 1012.0 |
| 20260906040003 | 22 | 0 | 0.0 | 0.0 | 0.00 | 0.00 | 0.00 | 57 | 1011.9 |
| 20260906035503 | 22 | 0 | 0.0 | 0.0 | 0.00 | 0.00 | 0.00 | 57 | 1011.8 |
| 20260906035003 | 22 | 0 | 0.0 | 0.0 | 0.00 | 0.00 | 0.00 | 57 | 1011.7 |
| 20260906034503 | 22 | 0 | 0.0 | 0.0 | 0.00 | 0.00 | 0.00 | 56 | 1011.7 |
| 20260906034003 | 22 | 22 | 0.0 | 1.6 | 0.00 | 0.00 | 0.00 | 56 | 1011.8 |
| 20260906033503 | 22 | 22 | 1.6 | 3.2 | 0.00 | 0.00 | 0.00 | 56 | 1011.7 |
| 20260906033003 | 22 | 22 | 0.0 | 3.2 | 0.00 | 0.00 | 0.00 | 56 | 1011.7 |
| 20260906032503 | 23 | 0 | 0.0 | 0.0 | 0.00 | 0.00 | 0.00 | 55 | 1011.6 |
| 20260906032003 | 23 | 0 | 0.0 | 0.0 | 0.00 | 0.00 | 0.00 | 55 | 1011.7 |
| 20260906031503 | 23 | 22 | 0.0 | 3.2 | 0.00 | 0.00 | 0.00 | 55 | 1011.7 |
| 20260906031003 | 23 | 22 | 1.6 | 3.2 | 0.00 | 0.00 | 0.00 | 55 | 1011.6 |
| 20260906030003 | 23 | 22 | 1.6 | 3.2 | 0.00 | 0.00 | 0.00 | 54 | 1011.7 |
| 20260906025503 | 23 | 22 | 1.6 | 3.2 | 0.00 | 0.00 | 0.00 | 54 | 1011.6 |
| 20260906025003 | 23 | 22 | 0.0 | 1.6 | 0.00 | 0.00 | 0.00 | 54 | 1011.6 |
| 20260906024503 | 23 | 22 | 0.0 | 1.6 | 0.00 | 0.00 | 0.00 | 54 | 1011.6 |
| 20260906024003 | 23 | 22 | 0.0 | 1.6 | 0.00 | 0.00 | 0.00 | 53 | 1011.6 |
| 20260906023503 | 23 | 22 | 1.6 | 1.6 | 0.00 | 0.00 | 0.00 | 53 | 1011.7 |
| 20260906023003 | 23 | 22 | 0.0 | 3.2 | 0.00 | 0.00 | 0.00 | 53 | 1011.6 |
| 20260906022503 | 23 | 22 | 1.6 | 3.2 | 0.00 | 0.00 | 0.00 | 53 | 1011.5 |
| 20260906022003 | 23 | 22 | 1.6 | 3.2 | 0.00 | 0.00 | 0.00 | 52 | 1011.7 |
| 20260906021503 | 23 | 22 | 3.2 | 4.8 | 0.00 | 0.00 | 0.00 | 53 | 1011.7 |
| 20260906021003 | 23 | 1 | 3.2 | 4.8 | 0.00 | 0.00 | 0.00 | 53 | 1011.7 |
| 20260906020503 | 24 | 360 | 1.6 | 3.2 | 0.00 | 0.00 | 0.00 | 53 | 1011.6 |
| 20260906020003 | 24 | 360 | 1.6 | 3.2 | 0.00 | 0.00 | 0.00 | 53 | 1011.6 |
| 20260906015503 | 24 | 360 | 1.6 | 3.2 | 0.00 | 0.00 | 0.00 | 53 | 1011.6 |
| 20260906015003 | 24 | 360 | 1.6 | 3.2 | 0.00 | 0.00 | 0.00 | 53 | 1011.7 |
| 20260906014503 | 24 | 360 | 0.0 | 1.6 | 0.00 | 0.00 | 0.00 | 53 | 1011.8 |
| 20260906014003 | 24 | 360 | 0.0 | 1.6 | 0.00 | 0.00 | 0.00 | 53 | 1011.8 |
| 20260906013503 | 24 | 360 | 0.0 | 1.6 | 0.00 | 0.00 | 0.00 | 54 | 1011.8 |
| 20260906013003 | 25 | 360 | 1.6 | 1.6 | 0.00 | 0.00 | 0.00 | 54 | 1011.9 |
| 20260906012503 | 25 | 0 | 0.0 | 0.0 | 0.00 | 0.00 | 0.00 | 53 | 1011.8 |
| 20260906012003 | 25 | 0 | 0.0 | 0.0 | 0.00 | 0.00 | 0.00 | 53 | 1011.7 |
| 20260906011503 | 25 | 360 | 0.0 | 1.6 | 0.00 | 0.00 | 0.00 | 53 | 1011.8 |
| 20260906011003 | 25 | 360 | 0.0 | 3.2 | 0.00 | 0.00 | 0.00 | 53 | 1011.8 |
| 20260906010503 | 25 | 360 | 1.6 | 3.2 | 0.00 | 0.00 | 0.00 | 53 | 1011.8 |
| 20260906010003 | 25 | 360 | 1.6 | 3.2 | 0.00 | 0.00 | 0.00 | 53 | 1011.8 |
| 20260906005503 | 25 | 360 | 1.6 | 3.2 | 0.00 | 0.00 | 0.00 | 54 | 1011.8 |
| 20260906005003 | 25 | 360 | 1.6 | 1.6 | 0.00 | 0.00 | 0.00 | 54 | 1011.8 |
| 20260906004503 | 25 | 360 | 1.6 | 1.6 | 0.00 | 0.00 | 0.00 | 54 | 1011.8 |
| 20260906004003 | 25 | 360 | 1.6 | 3.2 | 0.00 | 0.00 | 0.00 | 54 | 1011.8 |
| 20260906003503 | 25 | 360 | 0.0 | 1.6 | 0.00 | 0.00 | 0.00 | 54 | 1011.7 |
| 20260906003003 | 25 | 360 | 1.6 | 3.2 | 0.00 | 0.00 | 0.00 | 54 | 1011.7 |
| 20260906002503 | 25 | 360 | 3.2 | 4.8 | 0.00 | 0.00 | 0.00 | 54 | 1011.8 |
| 20260906002003 | 25 | 1 | 3.2 | 4.8 | 0.00 | 0.00 | 0.00 | 54 | 1011.8 |
| 20260906001503 | 25 | 13 | 3.2 | 4.8 | 0.00 | 0.00 | 0.00 | 54 | 1011.8 |
| 20260906001003 | 25 | 22 | 3.2 | 4.8 | 0.00 | 0.00 | 0.00 | 54 | 1011.7 |
| 20260906000503 | 25 | 22 | 1.6 | 4.8 | 0.00 | 0.00 | 0.00 | 54 | 1011.8 |
| 20260906000003 | 25 | 22 | 1.6 | 4.8 | 0.00 | 0.00 | 0.00 | 54 | 1011.8 |
| 20260905235503 | 25 | 22 | 0.0 | 3.2 | 0.00 | 0.00 | 0.00 | 54 | 1011.8 |
| 20260905235003 | 25 | 32 | 3.2 | 4.8 | 0.00 | 0.00 | 0.00 | 54 | 1011.7 |
| 20260905234503 | 25 | 26 | 3.2 | 3.2 | 0.00 | 0.00 | 0.00 | 55 | 1011.9 |
| 20260905234003 | 25 | 22 | 1.6 | 3.2 | 0.00 | 0.00 | 0.00 | 55 | 1011.8 |
| 20260905233503 | 25 | 22 | 1.6 | 3.2 | 0.00 | 0.00 | 0.00 | 55 | 1011.9 |
| 20260905233003 | 25 | 22 | 1.6 | 3.2 | 0.00 | 0.00 | 0.00 | 55 | 1012.0 |
| 20260905232503 | 25 | 22 | 3.2 | 3.2 | 0.00 | 0.00 | 0.00 | 55 | 1011.9 |
| 20260905232003 | 25 | 22 | 1.6 | 3.2 | 0.00 | 0.00 | 0.00 | 55 | 1012.0 |
| 20260905231503 | 25 | 22 | 3.2 | 3.2 | 0.00 | 0.00 | 0.00 | 55 | 1012.0 |
| 20260905231003 | 25 | 22 | 3.2 | 3.2 | 0.00 | 0.00 | 0.00 | 55 | 1012.0 |
| 20260905230503 | 25 | 22 | 3.2 | 3.2 | 0.00 | 0.00 | 0.00 | 55 | 1012.0 |
| 20260905230003 | 25 | 22 | 1.6 | 3.2 | 0.00 | 0.00 | 0.00 | 54 | 1012.0 |
| 20260905225503 | 25 | 22 | 1.6 | 3.2 | 0.00 | 0.00 | 0.00 | 55 | 1011.9 |
| 20260905225003 | 25 | 16 | 3.2 | 4.8 | 0.00 | 0.00 | 0.00 | 54 | 1011.9 |
| 20260905224503 | 25 | 20 | 4.8 | 6.4 | 0.00 | 0.00 | 0.00 | 55 | 1012.2 |
| 20260905224003 | 25 | 17 | 4.8 | 6.4 | 0.00 | 0.00 | 0.00 | 55 | 1012.3 |
| 20260905223503 | 25 | 18 | 4.8 | 8.0 | 0.00 | 0.00 | 0.00 | 55 | 1012.2 |
| 20260905223003 | 25 | 19 | 4.8 | 6.4 | 0.00 | 0.00 | 0.00 | 55 | 1012.1 |
| 20260905222503 | 25 | 21 | 3.2 | 6.4 | 0.00 | 0.00 | 0.00 | 55 | 1012.2 |
| 20260905222003 | 25 | 17 | 3.2 | 6.4 | 0.00 | 0.00 | 0.00 | 55 | 1012.2 |
| 20260905221503 | 25 | 21 | 3.2 | 6.4 | 0.00 | 0.00 | 0.00 | 56 | 1012.1 |
| 20260905221003 | 25 | 20 | 3.2 | 6.4 | 0.00 | 0.00 | 0.00 | 56 | 1012.0 |
| 20260905220503 | 25 | 12 | 4.8 | 6.4 | 0.00 | 0.00 | 0.00 | 56 | 1012.0 |
| 20260905220003 | 25 | 10 | 3.2 | 8.0 | 0.00 | 0.00 | 0.00 | 57 | 1012.0 |
| 20260905215503 | 25 | 4 | 3.2 | 6.4 | 0.00 | 0.00 | 0.00 | 57 | 1012.1 |
| 20260905215003 | 25 | 10 | 1.6 | 4.8 | 0.00 | 0.00 | 0.00 | 57 | 1012.0 |
| 20260905214503 | 25 | 360 | 1.6 | 4.8 | 0.00 | 0.00 | 0.00 | 57 | 1011.9 |
| 20260905214003 | 25 | 9 | 3.2 | 6.4 | 0.00 | 0.00 | 0.00 | 57 | 1011.9 |
| 20260905213503 | 25 | 14 | 3.2 | 8.0 | 0.00 | 0.00 | 0.00 | 58 | 1011.9 |
| 20260905213003 | 25 | 22 | 0.0 | 3.2 | 0.00 | 0.00 | 0.00 | 58 | 1012.0 |
| 20260905212503 | 25 | 22 | 0.0 | 1.6 | 0.00 | 0.00 | 0.00 | 59 | 1011.8 |
| 20260905212003 | 26 | 22 | 1.6 | 3.2 | 0.00 | 0.00 | 0.00 | 59 | 1011.9 |
| 20260905211503 | 26 | 22 | 1.6 | 1.6 | 0.00 | 0.00 | 0.00 | 59 | 1011.9 |
| 20260905211003 | 26 | 22 | 0.0 | 3.2 | 0.00 | 0.00 | 0.00 | 59 | 1011.8 |
| 20260905210503 | 26 | 22 | 1.6 | 3.2 | 0.00 | 0.00 | 0.00 | 59 | 1012.1 |
| 20260905210003 | 26 | 22 | 1.6 | 3.2 | 0.00 | 0.00 | 0.00 | 59 | 1012.0 |
| 20260905205503 | 26 | 22 | 1.6 | 3.2 | 0.00 | 0.00 | 0.00 | 59 | 1012.2 |
| 20260905205003 | 26 | 3 | 3.2 | 4.8 | 0.00 | 0.00 | 0.00 | 60 | 1012.1 |
| 20260905204503 | 26 | 12 | 3.2 | 4.8 | 0.00 | 0.00 | 0.00 | 60 | 1012.1 |
| 20260905204003 | 26 | 0 | 0.0 | 0.0 | 0.00 | 0.00 | 0.00 | 60 | 1011.9 |
| 20260905203503 | 26 | 22 | 0.0 | 1.6 | 0.00 | 0.00 | 0.00 | 60 | 1012.1 |
| 20260905203003 | 26 | 22 | 1.6 | 3.2 | 0.00 | 0.00 | 0.00 | 60 | 1012.0 |
| 20260905202503 | 26 | 22 | 1.6 | 3.2 | 0.00 | 0.00 | 0.00 | 61 | 1012.0 |
| 20260905202003 | 26 | 24 | 3.2 | 4.8 | 0.00 | 0.00 | 0.00 | 61 | 1012.0 |
| 20260905201503 | 27 | 22 | 1.6 | 3.2 | 0.00 | 0.00 | 0.00 | 62 | 1012.2 |
| 20260905201003 | 27 | 22 | 1.6 | 3.2 | 0.00 | 0.00 | 0.00 | 62 | 1012.2 |
| 20260905200503 | 27 | 12 | 0.0 | 3.2 | 0.00 | 0.00 | 0.00 | 62 | 1012.2 |
| 20260905200004 | 27 | 0 | 0.0 | 0.0 | 0.00 | 0.00 | 0.00 | 62 | 1012.2 |
| 20260905195503 | 27 | 0 | 0.0 | 0.0 | 0.00 | 0.00 | 0.00 | 62 | 1012.4 |
| 20260905195004 | 27 | 0 | 0.0 | 0.0 | 0.00 | 0.00 | 0.00 | 62 | 1012.6 |
| 20260905194503 | 27 | 0 | 0.0 | 0.0 | 0.00 | 0.00 | 0.00 | 62 | 1012.3 |
| 20260905194003 | 27 | 0 | 0.0 | 0.0 | 0.00 | 0.00 | 0.00 | 62 | 1012.3 |
| 20260905193503 | 27 | 360 | 1.6 | 1.6 | 0.00 | 0.00 | 0.00 | 62 | 1012.3 |
| 20260905193003 | 27 | 360 | 0.0 | 1.6 | 0.00 | 0.00 | 0.00 | 62 | 1012.3 |
| 20260905192503 | 27 | 0 | 0.0 | 0.0 | 0.00 | 0.00 | 0.00 | 63 | 1012.2 |
| 20260905192003 | 27 | 360 | 0.0 | 1.6 | 0.00 | 0.00 | 0.00 | 63 | 1012.3 |
| 20260905191503 | 27 | 360 | 1.6 | 3.2 | 0.00 | 0.00 | 0.00 | 63 | 1012.3 |
| 20260905191003 | 27 | 6 | 1.6 | 3.2 | 0.00 | 0.00 | 0.00 | 63 | 1012.2 |
| 20260905190503 | 27 | 22 | 3.2 | 4.8 | 0.00 | 0.00 | 0.00 | 63 | 1012.0 |
| 20260905190003 | 27 | 22 | 0.0 | 3.2 | 0.00 | 0.00 | 0.00 | 64 | 1012.1 |
| 20260905185503 | 27 | 22 | 0.0 | 3.2 | 0.00 | 0.00 | 0.00 | 64 | 1012.1 |
| 20260905185003 | 27 | 22 | 1.6 | 3.2 | 0.00 | 0.00 | 0.00 | 64 | 1012.0 |
| 20260905184503 | 27 | 22 | 1.6 | 3.2 | 0.00 | 0.00 | 0.00 | 64 | 1011.9 |
| 20260905184003 | 28 | 22 | 1.6 | 3.2 | 0.00 | 0.00 | 0.00 | 64 | 1011.9 |
| 20260905183503 | 28 | 40 | 1.6 | 3.2 | 0.00 | 0.00 | 0.00 | 64 | 1011.7 |
| 20260905183003 | 28 | 56 | 1.6 | 1.6 | 0.00 | 0.00 | 0.00 | 64 | 1011.7 |
| 20260905182503 | 28 | 74 | 0.0 | 1.6 | 0.00 | 0.00 | 0.00 | 64 | 1011.7 |
| 20260905182003 | 28 | 135 | 0.0 | 1.6 | 0.00 | 0.00 | 0.00 | 64 | 1011.5 |
| 20260905181503 | 28 | 0 | 0.0 | 0.0 | 0.00 | 0.00 | 0.00 | 63 | 1011.6 |
| 20260905181003 | 28 | 0 | 0.0 | 0.0 | 0.00 | 0.00 | 0.00 | 64 | 1011.6 |
| 20260905180503 | 28 | 0 | 0.0 | 0.0 | 0.00 | 0.00 | 0.00 | 64 | 1011.6 |
| 20260905180003 | 28 | 0 | 0.0 | 0.0 | 0.00 | 0.00 | 0.00 | 63 | 1011.6 |
| 20260905175503 | 28 | 0 | 0.0 | 0.0 | 0.00 | 0.00 | 0.00 | 63 | 1011.3 |
| 20260905175003 | 28 | 0 | 0.0 | 0.0 | 0.00 | 0.00 | 0.00 | 63 | 1011.3 |
| 20260905174503 | 28 | 0 | 0.0 | 0.0 | 0.00 | 0.00 | 0.00 | 63 | 1011.3 |
| 20260905174003 | 28 | 0 | 0.0 | 0.0 | 0.00 | 0.00 | 0.00 | 63 | 1011.4 |
| 20260905173503 | 28 | 135 | 0.0 | 1.6 | 0.00 | 0.00 | 0.00 | 62 | 1011.1 |
| 20260905173003 | 28 | 123 | 1.6 | 3.2 | 0.00 | 0.00 | 0.00 | 62 | 1011.1 |
| 20260905172504 | 29 | 128 | 1.6 | 3.2 | 0.00 | 0.00 | 0.00 | 62 | 1011.2 |
| 20260905172003 | 29 | 125 | 1.6 | 3.2 | 0.00 | 0.00 | 0.00 | 61 | 1011.2 |
| 20260905171503 | 29 | 133 | 1.6 | 3.2 | 0.00 | 0.00 | 0.00 | 60 | 1011.3 |
| 20260905171004 | 30 | 130 | 1.6 | 3.2 | 0.00 | 0.00 | 0.00 | 60 | 1011.2 |
| 20260905170503 | 30 | 121 | 1.6 | 3.2 | 0.00 | 0.00 | 0.00 | 60 | 1011.2 |
| 20260905170003 | 30 | 141 | 1.6 | 3.2 | 0.00 | 0.00 | 0.00 | 59 | 1010.9 |
| 20260905165503 | 30 | 141 | 1.6 | 4.8 | 0.00 | 0.00 | 0.00 | 58 | 1011.1 |
| 20260905165003 | 30 | 131 | 1.6 | 3.2 | 0.00 | 0.00 | 0.00 | 58 | 1011.1 |
| 20260905164503 | 30 | 131 | 1.6 | 4.8 | 0.00 | 0.00 | 0.00 | 57 | 1010.9 |
| 20260905164003 | 30 | 140 | 1.6 | 4.8 | 0.00 | 0.00 | 0.00 | 57 | 1010.9 |
| 20260905163503 | 30 | 132 | 1.6 | 6.4 | 0.00 | 0.00 | 0.00 | 57 | 1011.0 |
| 20260905163003 | 30 | 138 | 3.2 | 8.0 | 0.00 | 0.00 | 0.00 | 57 | 1010.9 |
| 20260905162503 | 30 | 140 | 3.2 | 9.7 | 0.00 | 0.00 | 0.00 | 56 | 1010.9 |
| 20260905162003 | 30 | 136 | 4.8 | 8.0 | 0.00 | 0.00 | 0.00 | 56 | 1010.9 |
| 20260905161503 | 31 | 145 | 4.8 | 9.7 | 0.00 | 0.00 | 0.00 | 56 | 1010.9 |
| 20260905161003 | 31 | 142 | 4.8 | 9.7 | 0.00 | 0.00 | 0.00 | 56 | 1010.9 |
| 20260905160503 | 31 | 145 | 3.2 | 11.3 | 0.00 | 0.00 | 0.00 | 56 | 1010.8 |
| 20260905160003 | 31 | 146 | 4.8 | 9.7 | 0.00 | 0.00 | 0.00 | 56 | 1010.9 |
| 20260905155503 | 31 | 147 | 4.8 | 9.7 | 0.00 | 0.00 | 0.00 | 56 | 1011.0 |
| 20260905155003 | 31 | 151 | 6.4 | 12.9 | 0.00 | 0.00 | 0.00 | 56 | 1010.9 |
| 20260905154503 | 31 | 149 | 8.0 | 11.3 | 0.00 | 0.00 | 0.00 | 55 | 1011.0 |
| 20260905154003 | 31 | 150 | 6.4 | 11.3 | 0.00 | 0.00 | 0.00 | 55 | 1011.0 |
| 20260905153503 | 31 | 141 | 6.4 | 11.3 | 0.00 | 0.00 | 0.00 | 55 | 1011.1 |
| 20260905153004 | 31 | 147 | 6.4 | 14.5 | 0.00 | 0.00 | 0.00 | 55 | 1011.1 |
| 20260905152503 | 31 | 140 | 4.8 | 14.5 | 0.00 | 0.00 | 0.00 | 54 | 1010.9 |
| 20260905152003 | 31 | 136 | 6.4 | 17.7 | 0.00 | 0.00 | 0.00 | 54 | 1010.9 |
| 20260905151503 | 31 | 138 | 8.0 | 12.9 | 0.00 | 0.00 | 0.00 | 54 | 1011.0 |
| 20260905151003 | 32 | 146 | 4.8 | 12.9 | 0.00 | 0.00 | 0.00 | 51 | 1011.0 |
| 20260905150503 | 32 | 144 | 6.4 | 12.9 | 0.00 | 0.00 | 0.00 | 49 | 1011.1 |
| 20260905150003 | 32 | 161 | 4.8 | 11.3 | 0.00 | 0.00 | 0.00 | 49 | 1011.1 |
| 20260905145503 | 32 | 145 | 4.8 | 11.3 | 0.00 | 0.00 | 0.00 | 49 | 1011.2 |
| 20260905145003 | 32 | 139 | 6.4 | 14.5 | 0.00 | 0.00 | 0.00 | 49 | 1011.1 |
| 20260905144503 | 32 | 135 | 4.8 | 11.3 | 0.00 | 0.00 | 0.00 | 49 | 1011.2 |
| 20260905144003 | 32 | 150 | 4.8 | 11.3 | 0.00 | 0.00 | 0.00 | 51 | 1011.2 |
| 20260905143503 | 32 | 161 | 6.4 | 11.3 | 0.00 | 0.00 | 0.00 | 50 | 1011.2 |
| 20260905143003 | 32 | 170 | 8.0 | 16.1 | 0.00 | 0.00 | 0.00 | 49 | 1011.4 |
| 20260905142503 | 32 | 177 | 6.4 | 14.5 | 0.00 | 0.00 | 0.00 | 48 | 1011.3 |
| 20260905142003 | 32 | 155 | 6.4 | 14.5 | 0.00 | 0.00 | 0.00 | 50 | 1011.4 |
| 20260905141503 | 32 | 177 | 6.4 | 11.3 | 0.00 | 0.00 | 0.00 | 47 | 1011.3 |
| 20260905141003 | 32 | 185 | 6.4 | 12.9 | 0.00 | 0.00 | 0.00 | 49 | 1011.4 |
| 20260905140503 | 32 | 177 | 6.4 | 12.9 | 0.00 | 0.00 | 0.00 | 49 | 1011.3 |
| 20260905140004 | 32 | 180 | 8.0 | 14.5 | 0.00 | 0.00 | 0.00 | 49 | 1011.3 |
| 20260905135503 | 32 | 189 | 6.4 | 16.1 | 0.00 | 0.00 | 0.00 | 47 | 1011.5 |
| 20260905135003 | 32 | 181 | 4.8 | 11.3 | 0.00 | 0.00 | 0.00 | 48 | 1011.4 |
| 20260905134503 | 32 | 181 | 4.8 | 9.7 | 0.00 | 0.00 | 0.00 | 48 | 1011.5 |
| 20260905134003 | 32 | 175 | 6.4 | 12.9 | 0.00 | 0.00 | 0.00 | 48 | 1011.5 |
| 20260905133503 | 32 | 176 | 4.8 | 11.3 | 0.00 | 0.00 | 0.00 | 49 | 1011.6 |
| 20260905133003 | 32 | 192 | 6.4 | 11.3 | 0.00 | 0.00 | 0.00 | 49 | 1011.6 |
| 20260905132503 | 31 | 193 | 9.7 | 17.7 | 0.00 | 0.00 | 0.00 | 50 | 1011.7 |
| 20260905132003 | 32 | 179 | 6.4 | 14.5 | 0.00 | 0.00 | 0.00 | 50 | 1011.8 |
| 20260905131503 | 31 | 193 | 8.0 | 14.5 | 0.00 | 0.00 | 0.00 | 51 | 1011.8 |
| 20260905131003 | 31 | 196 | 8.0 | 17.7 | 0.00 | 0.00 | 0.00 | 52 | 1011.9 |
| 20260905130503 | 31 | 190 | 8.0 | 14.5 | 0.00 | 0.00 | 0.00 | 52 | 1012.0 |
| 20260905130003 | 31 | 190 | 9.7 | 17.7 | 0.00 | 0.00 | 0.00 | 51 | 1012.0 |
| 20260905125503 | 31 | 193 | 8.0 | 14.5 | 0.00 | 0.00 | 0.00 | 52 | 1012.0 |
| 20260905125003 | 31 | 181 | 8.0 | 17.7 | 0.00 | 0.00 | 0.00 | 51 | 1012.1 |
| 20260905124503 | 31 | 192 | 8.0 | 19.3 | 0.00 | 0.00 | 0.00 | 50 | 1012.2 |
| 20260905124003 | 31 | 195 | 9.7 | 17.7 | 0.00 | 0.00 | 0.00 | 49 | 1012.2 |
| 20260905123503 | 32 | 201 | 8.0 | 17.7 | 0.00 | 0.00 | 0.00 | 46 | 1012.2 |
| 20260905123003 | 32 | 191 | 8.0 | 16.1 | 0.00 | 0.00 | 0.00 | 49 | 1012.3 |
| 20260905122503 | 31 | 187 | 8.0 | 16.1 | 0.00 | 0.00 | 0.00 | 49 | 1012.3 |
| 20260905122003 | 31 | 191 | 8.0 | 16.1 | 0.00 | 0.00 | 0.00 | 49 | 1012.3 |
| 20260905121504 | 32 | 205 | 8.0 | 16.1 | 0.00 | 0.00 | 0.00 | 47 | 1012.3 |
| 20260905121003 | 32 | 191 | 6.4 | 14.5 | 0.00 | 0.00 | 0.00 | 46 | 1012.3 |
| 20260905120503 | 32 | 193 | 6.4 | 12.9 | 0.00 | 0.00 | 0.00 | 44 | 1012.4 |
| 20260905120003 | 32 | 193 | 8.0 | 16.1 | 0.00 | 0.00 | 0.00 | 44 | 1012.5 |
| 20260905115503 | 32 | 198 | 8.0 | 14.5 | 0.00 | 0.00 | 0.00 | 43 | 1012.4 |
| 20260905115003 | 32 | 188 | 6.4 | 12.9 | 0.00 | 0.00 | 0.00 | 44 | 1012.3 |
| 20260905114503 | 32 | 186 | 8.0 | 12.9 | 0.00 | 0.00 | 0.00 | 41 | 1012.4 |
| 20260905114003 | 32 | 194 | 6.4 | 14.5 | 0.00 | 0.00 | 0.00 | 43 | 1012.4 |
| 20260905113503 | 31 | 192 | 8.0 | 14.5 | 0.00 | 0.00 | 0.00 | 40 | 1012.4 |
| 20260905113003 | 31 | 216 | 8.0 | 16.1 | 0.00 | 0.00 | 0.00 | 41 | 1012.5 |
| 20260905112503 | 31 | 204 | 6.4 | 11.3 | 0.00 | 0.00 | 0.00 | 41 | 1012.4 |
| 20260905112003 | 32 | 198 | 6.4 | 11.3 | 0.00 | 0.00 | 0.00 | 44 | 1012.6 |
| 20260905111503 | 32 | 199 | 8.0 | 14.5 | 0.00 | 0.00 | 0.00 | 43 | 1012.6 |
| 20260905111003 | 32 | 203 | 8.0 | 14.5 | 0.00 | 0.00 | 0.00 | 43 | 1012.5 |
| 20260905110503 | 32 | 201 | 4.8 | 14.5 | 0.00 | 0.00 | 0.00 | 40 | 1012.5 |
| 20260905110003 | 31 | 210 | 9.7 | 14.5 | 0.00 | 0.00 | 0.00 | 39 | 1012.4 |
| 20260905105503 | 31 | 209 | 8.0 | 14.5 | 0.00 | 0.00 | 0.00 | 44 | 1012.6 |
| 20260905105003 | 31 | 207 | 8.0 | 14.5 | 0.00 | 0.00 | 0.00 | 43 | 1012.6 |
| 20260905104503 | 31 | 206 | 9.7 | 14.5 | 0.00 | 0.00 | 0.00 | 42 | 1012.7 |
| 20260905104003 | 32 | 201 | 8.0 | 14.5 | 0.00 | 0.00 | 0.00 | 38 | 1012.7 |
| 20260905103503 | 32 | 201 | 6.4 | 12.9 | 0.00 | 0.00 | 0.00 | 39 | 1012.7 |
| 20260905103003 | 32 | 209 | 8.0 | 14.5 | 0.00 | 0.00 | 0.00 | 37 | 1012.7 |
| 20260905102503 | 32 | 207 | 6.4 | 14.5 | 0.00 | 0.00 | 0.00 | 33 | 1012.7 |
| 20260905102003 | 32 | 205 | 8.0 | 14.5 | 0.00 | 0.00 | 0.00 | 35 | 1012.7 |
| 20260905101503 | 32 | 199 | 6.4 | 11.3 | 0.00 | 0.00 | 0.00 | 37 | 1012.9 |
| 20260905101003 | 31 | 209 | 6.4 | 12.9 | 0.00 | 0.00 | 0.00 | 39 | 1012.9 |
| 20260905100503 | 31 | 201 | 6.4 | 11.3 | 0.00 | 0.00 | 0.00 | 43 | 1012.9 |
| 20260905100003 | 31 | 193 | 6.4 | 12.9 | 0.00 | 0.00 | 0.00 | 45 | 1013.0 |
| 20260905095503 | 31 | 186 | 4.8 | 11.3 | 0.00 | 0.00 | 0.00 | 50 | 1012.9 |
| 20260905095003 | 31 | 205 | 8.0 | 14.5 | 0.00 | 0.00 | 0.00 | 46 | 1012.9 |
| 20260905094503 | 31 | 211 | 6.4 | 12.9 | 0.00 | 0.00 | 0.00 | 47 | 1013.0 |
| 20260905094003 | 30 | 209 | 9.7 | 14.5 | 0.00 | 0.00 | 0.00 | 49 | 1013.2 |
| 20260905093503 | 31 | 200 | 6.4 | 14.5 | 0.00 | 0.00 | 0.00 | 48 | 1013.2 |
| 20260905093003 | 31 | 197 | 4.8 | 11.3 | 0.00 | 0.00 | 0.00 | 46 | 1013.1 |
| 20260905092503 | 31 | 210 | 6.4 | 11.3 | 0.00 | 0.00 | 0.00 | 46 | 1013.1 |
| 20260905092003 | 31 | 209 | 4.8 | 9.7 | 0.00 | 0.00 | 0.00 | 46 | 1013.2 |
| 20260905091504 | 31 | 214 | 6.4 | 11.3 | 0.00 | 0.00 | 0.00 | 41 | 1013.2 |
| 20260905091003 | 31 | 209 | 6.4 | 14.5 | 0.00 | 0.00 | 0.00 | 42 | 1013.1 |
| 20260905090503 | 31 | 230 | 6.4 | 12.9 | 0.00 | 0.00 | 0.00 | 40 | 1013.1 |
| 20260905090003 | 31 | 233 | 4.8 | 14.5 | 0.00 | 0.00 | 0.00 | 37 | 1013.2 |
| 20260905085503 | 30 | 227 | 6.4 | 11.3 | 0.00 | 0.00 | 0.00 | 38 | 1013.2 |
| 20260905085003 | 30 | 230 | 6.4 | 12.9 | 0.00 | 0.00 | 0.00 | 39 | 1013.3 |
| 20260905084503 | 30 | 224 | 8.0 | 14.5 | 0.00 | 0.00 | 0.00 | 43 | 1013.2 |
| 20260905084003 | 30 | 213 | 6.4 | 9.7 | 0.00 | 0.00 | 0.00 | 45 | 1013.3 |
| 20260905083503 | 30 | 218 | 6.4 | 12.9 | 0.00 | 0.00 | 0.00 | 48 | 1013.4 |
| 20260905083003 | 29 | 221 | 6.4 | 12.9 | 0.00 | 0.00 | 0.00 | 49 | 1013.3 |
| 20260905082503 | 29 | 208 | 4.8 | 9.7 | 0.00 | 0.00 | 0.00 | 51 | 1013.4 |
| 20260905082003 | 29 | 216 | 8.0 | 14.5 | 0.00 | 0.00 | 0.00 | 51 | 1013.3 |
| 20260905081503 | 29 | 214 | 4.8 | 9.7 | 0.00 | 0.00 | 0.00 | 51 | 1013.1 |
| 20260905081003 | 28 | 215 | 6.4 | 11.3 | 0.00 | 0.00 | 0.00 | 52 | 1012.9 |
| 20260905080503 | 28 | 233 | 8.0 | 17.7 | 0.00 | 0.00 | 0.00 | 51 | 1013.2 |
| 20260905080003 | 28 | 243 | 4.8 | 11.3 | 0.00 | 0.00 | 0.00 | 51 | 1013.1 |
| 20260905075503 | 28 | 218 | 8.0 | 14.5 | 0.00 | 0.00 | 0.00 | 51 | 1013.1 |
| 20260905075003 | 28 | 228 | 4.8 | 12.9 | 0.00 | 0.00 | 0.00 | 52 | 1012.9 |
| 20260905074503 | 28 | 208 | 4.8 | 9.7 | 0.00 | 0.00 | 0.00 | 53 | 1012.7 |
| 20260905074003 | 28 | 206 | 3.2 | 8.0 | 0.00 | 0.00 | 0.00 | 54 | 1012.7 |
| 20260905073503 | 28 | 218 | 3.2 | 8.0 | 0.00 | 0.00 | 0.00 | 54 | 1012.6 |
| 20260905073003 | 28 | 212 | 4.8 | 9.7 | 0.00 | 0.00 | 0.00 | 53 | 1012.8 |
| 20260905072503 | 28 | 204 | 4.8 | 6.4 | 0.00 | 0.00 | 0.00 | 51 | 1012.7 |
| 20260905072003 | 28 | 229 | 3.2 | 6.4 | 0.00 | 0.00 | 0.00 | 51 | 1012.6 |
| 20260905071503 | 28 | 224 | 3.2 | 6.4 | 0.00 | 0.00 | 0.00 | 49 | 1012.5 |
| 20260905071003 | 29 | 223 | 3.2 | 8.0 | 0.00 | 0.00 | 0.00 | 47 | 1012.5 |
| 20260905070503 | 30 | 285 | 1.6 | 4.8 | 0.00 | 0.00 | 0.00 | 44 | 1012.6 |
| 20260905070003 | 30 | 292 | 0.0 | 3.2 | 0.00 | 0.00 | 0.00 | 44 | 1012.5 |
| 20260905065503 | 29 | 292 | 0.0 | 3.2 | 0.00 | 0.00 | 0.00 | 44 | 1012.6 |
| 20260905065003 | 29 | 292 | 0.0 | 3.2 | 0.00 | 0.00 | 0.00 | 45 | 1012.6 |
| 20260905064503 | 28 | 236 | 0.0 | 3.2 | 0.00 | 0.00 | 0.00 | 46 | 1012.4 |
| 20260905064003 | 29 | 338 | 1.6 | 3.2 | 0.00 | 0.00 | 0.00 | 46 | 1012.5 |
| 20260905063503 | 29 | 4 | 0.0 | 3.2 | 0.00 | 0.00 | 0.00 | 48 | 1012.5 |
| 20260905063003 | 28 | 22 | 0.0 | 1.6 | 0.00 | 0.00 | 0.00 | 49 | 1012.5 |
| 20260905062503 | 28 | 0 | 0.0 | 0.0 | 0.00 | 0.00 | 0.00 | 50 | 1012.7 |
| 20260905062003 | 27 | 22 | 1.6 | 3.2 | 0.00 | 0.00 | 0.00 | 51 | 1012.6 |
| 20260905061503 | 27 | 22 | 1.6 | 3.2 | 0.00 | 0.00 | 0.00 | 51 | 1012.6 |
| 20260905061003 | 27 | 17 | 1.6 | 3.2 | 0.00 | 0.00 | 0.00 | 52 | 1012.6 |
| 20260905060503 | 26 | 360 | 1.6 | 3.2 | 0.00 | 0.00 | 0.00 | 52 | 1012.6 |
| 20260905060003 | 26 | 1 | 3.2 | 3.2 | 0.00 | 0.00 | 0.00 | 53 | 1012.7 |
| 20260905055503 | 26 | 27 | 0.0 | 3.2 | 0.00 | 0.00 | 0.00 | 53 | 1012.8 |
| 20260905055003 | 26 | 45 | 1.6 | 3.2 | 0.00 | 0.00 | 0.00 | 54 | 1012.7 |
| 20260905054503 | 25 | 45 | 0.0 | 1.6 | 0.00 | 0.00 | 0.00 | 55 | 1012.7 |
| 20260905054003 | 25 | 25 | 1.6 | 3.2 | 0.00 | 0.00 | 0.00 | 56 | 1012.7 |
| 20260905053503 | 24 | 360 | 1.6 | 4.8 | 0.00 | 0.00 | 0.00 | 57 | 1012.6 |
| 20260905053003 | 24 | 12 | 3.2 | 3.2 | 0.00 | 0.00 | 0.00 | 58 | 1012.6 |
| 20260905052503 | 23 | 4 | 1.6 | 4.8 | 0.00 | 0.00 | 0.00 | 59 | 1012.5 |